GLOBALSTAR M026 [-]

Last updated on Fri Dec 29 2023 00:02:56 GMT+0000 (Coordinated Universal Time)

1 25873U 99041B 23362.17166600 -.00000049 00000+0 53823-3 0 9998 2 25873 52.0028 296.1666 0001973 70.6809 37.1586 11.06833105 89229
UTC large
Height (km)
Speed (km/s)
/
Latitude / Longitude
Inclination (degrees)
Orbital Period (minutes)
Azimuth
Elevation
Range (km)
Doppler Factor

Next 0 passes for location: London (51.5072 / 0.1276)

Sorry there are no passes over London.